Zurück zum Katalog

KUIPER-00160

AktivKommunikationLEO
NORAD 67765·PAYLOAD·🇺🇸 United States

Gestartet Feb 12, 2026 von Guiana Space Centre

Loading…

Nächste Überflüge (nächste 24 Stunden)

TLE

AktuellSource: CelesTrak SupGP

Epoche: Sep 14, 2026, 16:36 UTC

1 67765C 26030B   26257.69206019 -.00666600  00000+0 -76617-1 0  2577
2 67765  51.8989  29.9879 0011537 349.3551 328.2957 14.85947529    15

Verfolge KUIPER-00160 in Echtzeit mit AllMySat

Download on the App Store